TimeMST,TemperatureF,Dew PointF,Humidity,Sea Level PressureIn,VisibilityMPH,Wind Direction,Wind SpeedMPH,Gust SpeedMPH,PrecipitationIn,Events,Conditions,WindDirDegrees,DateUTC
12:51 AM,37.0,6.1,28,30.04,10.0,SW,5.8,-,N/A,,Clear,220,2013-02-19 07:51:00
1:51 AM,39.9,10.9,31,30.03,10.0,SSE,8.1,-,N/A,,Clear,150,2013-02-19 08:51:00
2:51 AM,36.0,10.0,34,30.03,10.0,East,6.9,-,N/A,,Clear,100,2013-02-19 09:51:00
3:51 AM,34.0,10.0,37,30.04,10.0,Calm,Calm,-,N/A,,Clear,0,2013-02-19 10:51:00
4:51 AM,32.0,12.0,44,30.04,10.0,ESE,6.9,-,N/A,,Clear,120,2013-02-19 11:51:00
5:51 AM,32.0,12.9,45,30.05,10.0,SE,5.8,-,N/A,,Clear,130,2013-02-19 12:51:00
6:51 AM,30.9,12.0,46,30.08,10.0,West,3.5,-,N/A,,Clear,260,2013-02-19 13:51:00
7:51 AM,37.0,16.0,42,30.09,10.0,Calm,Calm,-,N/A,,Clear,0,2013-02-19 14:51:00
8:51 AM,43.0,19.9,40,30.11,10.0,SSE,12.7,-,N/A,,Clear,160,2013-02-19 15:51:00
9:51 AM,48.9,21.9,35,30.08,10.0,SSE,18.4,25.3,N/A,,Clear,160,2013-02-19 16:51:00
11:51 AM,55.0,21.0,27,29.98,10.0,SSE,24.2,28.8,N/A,,Clear,160,2013-02-19 18:51:00
12:51 PM,55.0,21.0,27,29.94,10.0,SSE,21.9,31.1,N/A,,Clear,150,2013-02-19 19:51:00
1:51 PM,55.0,21.0,27,29.88,10.0,SSE,24.2,29.9,N/A,,Clear,150,2013-02-19 20:51:00
2:51 PM,54.0,21.9,29,29.87,10.0,SSE,25.3,29.9,N/A,,Clear,160,2013-02-19 21:51:00
3:51 PM,52.0,23.0,32,29.87,10.0,SSE,26.5,33.4,N/A,,Clear,160,2013-02-19 22:51:00
5:51 PM,51.1,26.1,38,29.86,10.0,SSE,24.2,-,N/A,,Clear,160,2013-02-20 00:51:00
6:51 PM,51.1,30.9,46,29.87,10.0,SSE,20.7,-,N/A,,Clear,160,2013-02-20 01:51:00
8:51 PM,51.1,39.0,63,29.82,10.0,SSE,20.7,24.2,N/A,,Partly Cloudy,160,2013-02-20 03:51:00
9:51 PM,48.9,41.0,74,29.81,10.0,SSE,23.0,-,N/A,,Mostly Cloudy,150,2013-02-20 04:51:00
10:51 PM,48.9,39.9,71,29.79,10.0,SSE,20.7,29.9,N/A,,Mostly Cloudy,160,2013-02-20 05:51:00
11:51 PM,44.1,39.9,85,29.81,10.0,SSE,28.8,35.7,0.00,Rain,Light Rain,160,2013-02-20 06:51:00